Location: *
(58.7167°N, 26.1833°E)
Time: 18:10:54
(UTC+00:00)

SL-16 R/B - Pass Details

Date: 25 August 2019
Orbit: 986 x 1006 km, 99.4° (Epoch: 17 October)

Event Time Altitude Azimuth Distance (km) Brightness Sun altitude
Exits shadow 22:18:53 12° 121° (ESE) 2,618 4.5 -20.7°
Maximum altitude 22:24:13 42° 55° (NE) 1,392 3.6 -20.7°
Drops below altitude 10° 22:29:58 10° 347° (NNW) 2,767 5.9 -20.6°
Sets 22:32:34 0° 341° (NNW) 3,722 6.7 -20.6°
